Weather History for Burlington, VT

Change the Weather History Date:

Sunday, May 26, 2013

  Actual Average Record
Temperature  
Mean Temperature 47 °F 60 °F  
Max Temperature 51 °F 70 °F 92 °F (2010)
Min Temperature 42 °F 49 °F 32 °F (1969)
Degree Days  
Heating Degree Days 18 6  
Month to date heating degree days 150 258  
Since 1 July heating degree days 6617 7332  
Cooling Degree Days 0 1  
Month to date cooling degree days 24 9  
Year to date cooling degree days 24 11  
Moisture  
Dew Point 40 °F    
Average Humidity 85    
Maximum Humidity 96    
Minimum Humidity 74    
Precipitation  
Precipitation 0.46 in 0.12 in 1.27 in (1983)
Month to date precipitation 8.20 2.84  
Year to date precipitation 14.73 11.70  
Snow  
Snow 0.00 in 0.00 in 0.00 in (2002)
Month to date snowfall 0.0 0.0  
Since 1 July snowfall 82.9 81.2  
Snow Depth 0.00 in    
Sea Level Pressure  
Sea Level Pressure 29.95 in    
Wind  
Wind Speed 11 mph (NNW)    
Max Wind Speed 23 mph    
Max Gust Speed 33 mph    
Visibility 8 miles    
Events Rain    
T = Trace of Precipitation, MM = Missing Value Source: NWS Daily Summary

Daily Weather History Graph

Daily Weather History Graph

Search for Another Location

Airport:

Trip Planner

Search our weather history database for the weather conditions in past years. The results will help you decide how hot, cold, wet, or windy it might be!

Date:

Astronomy

May. 26, 2013 Rise Set
Actual Time 5:14 AM EDT 8:25 PM EDT
Civil Twilight 4:39 AM EDT 9:00 PM EDT
Nautical Twilight 3:54 AM EDT 9:45 PM EDT
Astronomical Twilight 2:59 AM EDT 10:41 PM EDT
Moon 10:08 PM EDT (5/26) 6:41 AM EDT (5/26)
Length of Visible Light 16h 20m
Length of Day
15h 10m
Waning Gibbous, 97% of the Moon is Illuminated
May 26
Waning Gibbous
May 31
Last Quarter
Jun 8
New
Jun 16
First Quarter
Jun 23
Full

Hourly Weather History & Observations

Time (EDT) Temp. Windchill Dew Point Humidity Pressure Visibility Wind Dir Wind Speed Gust Speed Precip Events Conditions
12:30 AM 42.8 °F 35.1 °F 39.2 °F 87% 29.91 in 5.0 mi North 16.1 mph 25.3 mph 0.04 in Rain Light Rain
12:47 AM 42.8 °F 35.4 °F 39.2 °F 87% 29.91 in 7.0 mi North 15.0 mph - 0.06 in Rain Light Rain
12:54 AM 43.0 °F 35.4 °F 39.9 °F 89% 29.91 in 8.0 mi North 16.1 mph 26.5 mph 0.07 in Rain Light Rain
1:15 AM 42.8 °F 34.3 °F 39.2 °F 87% 29.90 in 6.0 mi North 19.6 mph 31.1 mph 0.02 in Rain Rain
1:31 AM 42.8 °F 34.0 °F 39.2 °F 87% 29.90 in 9.0 mi North 20.7 mph 32.2 mph 0.03 in Rain Light Rain
1:47 AM 42.8 °F 35.8 °F 39.2 °F 87% 29.89 in 9.0 mi North 13.8 mph 27.6 mph 0.05 in Rain Light Rain
1:54 AM 43.0 °F 34.8 °F 39.9 °F 89% 29.90 in 9.0 mi North 18.4 mph 24.2 mph 0.06 in Rain Light Rain
2:01 AM 42.8 °F 34.3 °F 39.2 °F 87% 29.89 in 10.0 mi North 19.6 mph 26.5 mph 0.00 in Rain Light Rain
2:17 AM 42.8 °F 34.8 °F 39.2 °F 87% 29.89 in 10.0 mi North 17.3 mph 25.3 mph 0.00 in Rain Light Rain
2:34 AM 42.8 °F 35.4 °F 39.2 °F 87% 29.88 in 10.0 mi North 15.0 mph 26.5 mph 0.02 in Rain Light Rain
2:41 AM 42.8 °F 35.8 °F 39.2 °F 87% 29.88 in 10.0 mi North 13.8 mph - 0.02 in Rain Light Rain
2:49 AM 42.8 °F 35.4 °F 39.2 °F 87% 29.88 in 10.0 mi North 15.0 mph 33.4 mph 0.02 in Rain Light Rain
2:54 AM 43.0 °F 35.1 °F 39.9 °F 89% 29.89 in 10.0 mi North 17.3 mph 25.3 mph 0.02 in Rain Light Rain
3:21 AM 42.8 °F 37.5 °F 39.2 °F 87% 29.87 in 9.0 mi North 9.2 mph - 0.03 in Rain Light Rain
3:46 AM 42.8 °F 35.4 °F 39.2 °F 87% 29.87 in 10.0 mi North 15.0 mph 24.2 mph 0.05 in Rain Light Rain
3:54 AM 42.1 °F 34.5 °F 39.0 °F 89% 29.88 in 8.0 mi North 15.0 mph - 0.05 in Rain Rain
4:54 AM 42.1 °F 35.2 °F 39.0 °F 89% 29.88 in 10.0 mi North 12.7 mph 23.0 mph 0.07 in Rain Light Rain
5:29 AM 42.8 °F 38.0 °F 39.2 °F 87% 29.88 in 5.0 mi North 8.1 mph - 0.02 in Rain Rain
5:47 AM 42.8 °F 36.6 °F 39.2 °F 87% 29.88 in 5.0 mi North 11.5 mph 20.7 mph 0.08 in Rain Rain
5:54 AM 42.1 °F 34.5 °F 39.0 °F 89% 29.89 in 5.0 mi North 15.0 mph 21.9 mph 0.08 in Rain Light Rain
6:01 AM 42.8 °F 37.0 °F 39.2 °F 87% 29.88 in 9.0 mi North 10.4 mph 21.9 mph 0.00 in Rain Light Rain
6:30 AM 42.8 °F 35.4 °F 39.2 °F 87% 29.89 in 10.0 mi North 15.0 mph 26.5 mph 0.01 in Rain Light Rain
6:33 AM 42.8 °F 35.1 °F 39.2 °F 87% 29.89 in 4.0 mi North 16.1 mph 21.9 mph 0.01 in Rain Light Rain
6:47 AM 42.8 °F 35.8 °F 39.2 °F 87% 29.89 in 4.0 mi North 13.8 mph - 0.02 in Rain Light Rain
6:48 AM 42.8 °F 35.4 °F 39.2 °F 87% 29.89 in 3.0 mi North 15.0 mph - 0.02 in Rain Light Rain
6:54 AM 42.1 °F 35.7 °F 39.0 °F 89% 29.91 in 5.0 mi North 11.5 mph 20.7 mph 0.02 in Rain Light Rain
7:17 AM 42.8 °F 35.1 °F 39.2 °F 87% 29.90 in 10.0 mi North 16.1 mph 20.7 mph 0.01 in Rain Light Rain
7:26 AM 42.8 °F 35.4 °F 39.2 °F 87% 29.90 in 10.0 mi North 15.0 mph 23.0 mph 0.01 in   Light Drizzle
7:50 AM 42.8 °F 35.1 °F 39.2 °F 87% 29.91 in 6.0 mi North 16.1 mph 23.0 mph 0.01 in Rain Light Rain
7:54 AM 42.1 °F 33.9 °F 39.0 °F 89% 29.92 in 6.0 mi North 17.3 mph 26.5 mph 0.01 in Rain Light Rain
8:41 AM 42.8 °F 36.2 °F 39.2 °F 87% 29.93 in 4.0 mi NNW 12.7 mph 19.6 mph 0.02 in Rain Light Rain
8:54 AM 42.1 °F 34.5 °F 39.9 °F 92% 29.94 in 5.0 mi North 15.0 mph 19.6 mph 0.02 in Rain Light Rain
9:28 AM 42.8 °F 36.2 °F 39.2 °F 87% 29.93 in 3.0 mi NNW 12.7 mph 19.6 mph 0.04 in Rain Light Rain
9:35 AM 42.8 °F 35.1 °F 39.2 °F 87% 29.93 in 2.5 mi NNW 16.1 mph - 0.05 in Rain Rain
9:45 AM 42.8 °F 35.1 °F 39.2 °F 87% 29.94 in 3.0 mi NW 16.1 mph - 0.07 in Rain Light Rain
9:54 AM 43.0 °F 36.0 °F 41.0 °F 93% 29.95 in 3.0 mi NNW 13.8 mph 21.9 mph 0.07 in Rain Light Rain
10:13 AM 42.8 °F 35.4 °F 41.0 °F 93% 29.94 in 3.0 mi NNW 15.0 mph - 0.01 in Rain Light Rain
10:45 AM 44.6 °F 37.2 °F 41.0 °F 87% 29.94 in 3.0 mi NW 17.3 mph 24.2 mph 0.02 in Rain Light Rain
10:54 AM 44.1 °F 36.2 °F 41.0 °F 89% 29.95 in 3.0 mi NNW 18.4 mph 27.6 mph 0.02 in Rain Light Rain
11:14 AM 44.6 °F 37.8 °F 41.0 °F 87% 29.95 in 8.0 mi NNW 15.0 mph 21.9 mph 0.00 in Rain Light Rain
11:41 AM 46.4 °F 39.8 °F 42.8 °F 87% 29.96 in 8.0 mi North 16.1 mph 25.3 mph 0.01 in Rain Light Rain
11:52 AM 44.6 °F 37.2 °F 41.0 °F 87% 29.96 in 8.0 mi NNW 17.3 mph 25.3 mph 0.01 in Rain Light Rain
11:54 AM 45.0 °F 37.9 °F 41.0 °F 86% 29.97 in 8.0 mi NNW 16.1 mph 25.3 mph 0.01 in Rain Light Rain
12:08 PM 44.6 °F 37.8 °F 41.0 °F 87% 29.97 in 6.0 mi North 15.0 mph - 0.00 in Rain Light Rain
12:19 PM 46.4 °F 40.7 °F 41.0 °F 81% 29.97 in 6.0 mi North 12.7 mph 24.2 mph 0.00 in Rain Light Rain
12:35 PM 46.4 °F 40.1 °F 42.8 °F 87% 29.97 in 10.0 mi NNW 15.0 mph 21.9 mph 0.00 in Rain Light Rain
12:42 PM 48.2 °F - 42.8 °F 82% 29.97 in 10.0 mi NNW 15.0 mph 21.9 mph 0.00 in   Overcast
12:52 PM 46.4 °F 39.0 °F 42.8 °F 87% 29.98 in 10.0 mi NNW 19.6 mph 27.6 mph 0.00 in Rain Light Rain
12:54 PM 46.9 °F - 42.1 °F 83% 29.99 in 10.0 mi NNW 16.1 mph 27.6 mph 0.00 in Rain Light Rain
1:04 PM 48.2 °F - 42.8 °F 82% 29.98 in 10.0 mi NNW 18.4 mph 28.8 mph 0.00 in Rain Light Rain
1:54 PM 46.0 °F 39.3 °F 42.1 °F 86% 30.00 in 6.0 mi North 16.1 mph 21.9 mph 0.00 in Rain Light Rain
2:32 PM 50.0 °F - 42.8 °F 76% 29.99 in 10.0 mi NNW 18.4 mph 26.5 mph 0.01 in Rain Light Rain
2:54 PM 48.9 °F - 41.0 °F 74% 30.01 in 10.0 mi NNW 17.3 mph 25.3 mph 0.01 in   Overcast
3:14 PM 48.2 °F - 42.8 °F 82% 30.02 in 10.0 mi NNW 19.6 mph 25.3 mph 0.00 in Rain Rain
3:21 PM 46.4 °F 40.1 °F 41.0 °F 81% 30.02 in 10.0 mi NNW 15.0 mph 24.2 mph 0.00 in Rain Light Rain
3:54 PM 48.0 °F - 42.1 °F 80% 30.03 in 10.0 mi NW 11.5 mph - 0.01 in   Overcast
4:54 PM 48.9 °F - 43.0 °F 80% 30.06 in 10.0 mi NNW 11.5 mph - 0.01 in Rain Light Rain
5:54 PM 48.9 °F - 43.0 °F 80% 30.07 in 10.0 mi NNW 6.9 mph - 0.00 in Rain Light Rain
6:54 PM 50.0 °F - 43.0 °F 77% 30.08 in 10.0 mi NW 3.5 mph - 0.00 in   Overcast
7:54 PM 50.0 °F - 43.0 °F 77% 30.09 in 10.0 mi Calm Calm - N/A   Partly Cloudy
8:54 PM 45.0 °F - 43.0 °F 93% 30.08 in 10.0 mi Calm Calm - N/A   Partly Cloudy
9:54 PM 43.0 °F 39.5 °F 41.0 °F 93% 30.09 in 10.0 mi South 5.8 mph - N/A   Mostly Cloudy
10:54 PM 42.1 °F 40.2 °F 39.9 °F 92% 30.09 in 10.0 mi South 3.5 mph - N/A   Partly Cloudy
11:54 PM 43.0 °F 40.3 °F 41.0 °F 93% 30.08 in 10.0 mi South 4.6 mph - N/A   Mostly Cloudy